Погода в Дюнкерке

Франция     51°01′46″N   2°22′49″E
темп.,
°C
ветер,
м/с
пор.,
м/с
влажн.,
%
обл.,
%
осадки,
мм/ч
давл.,
гПа
погр.,
м
15 мая, сб
сб1523:00+8ссв22912 0.0 1009116
02:00+7ю3395100 0.0 100868
05:00+6ю3495100 0.0 100676
08:00+9ююв5888100 0.0 1005397
11:00+11ю7973100 0.3 10031271
14:00+9ююв61093100 1.4 1002611
17:00+13зюз812702 1.1 10001127
20:00+12зюз813775 1.1 1000774
16 мая, вс
вс1623:00+9юз613895 0.0 1002446
02:00+9юз714900 0.0 1001542
05:00+8юз613922 0.0 1001464
08:00+9юз6118964 0.0 1001573
11:00+12юз796998 0.3 10011061
14:00+14зюз796295 0.9 10011304
17:00+13зюз71070100 0.3 1000989
20:00+11юз6108427 0.4 1000639
17 мая, пн
пн1723:00+10ююз61192100 0.6 999506
02:00+10юз91493100 2.0 998745
05:00+10зюз6119499 0.5 1000405
08:00+10зюз71192100 0.8 1002620
11:00+12з798020 0.3 1004762
14:00+13з677444 1.5 1005916
17:00+14з6870100 0.7 1006931
20:00+12зюз588088 1.1 1006494
18 мая, вт
вт1823:00+9юз4995100 0.5 1007258
02:00+10зюз4892100 1.2 1007234
05:00+10зсз7119092 0.4 1009435
08:00+9з6108324 0.4 1012525
11:00+12з676932 0.0 1014820
14:00+13з6766100 0.1 10151107
17:00+12з797899 1.3 1016857
20:00+11зюз7118320 3.3 1016446
19 мая, ср
ср1923:00+9юз51193100 0.4 1017289
02:00+9юз51091100 0.6 1017313
05:00+8юз599386 0.4 1017288
08:00+9зюз51090100 0.4 1018501
11:00+12зюз797569 0.2 1018933
14:00+12зюз897348 0.4 10191063
17:00+13з896917 0.2 1019990
20:00+12зюз711835 0.4 1019561